Location: Oshawa
(43.9000°N, 78.8670°W)
Time: 05:22:40
(UTC-04:00)

S-56A Canister/Altair - All Passes

Search period start: 23 September 2017 00:00
Search period end: 03 October 2017 00:00
Orbit: 635 x 2499 km, 38.9° (Epoch: 22 September)

Date Brightness Start Highest point End Pass type
(mag) Time Alt. Az. Time Alt. Az. Time Alt. Az.
23 Sep - 01:39:52 10° WSW 01:50:47 69° S 02:05:27 10° E visible
23 Sep - 03:44:13 10° W 03:57:01 68° SSW 04:12:01 10° ESE visible
23 Sep - 05:49:46 10° W 06:02:55 45° SSW 06:16:18 10° SSE visible
23 Sep - 07:58:32 10° W 08:07:09 18° SW 08:15:25 10° SSW daylight
23 Sep - 23:05:12 10° SSW 23:13:11 38° SE 23:24:21 10° E visible
24 Sep - 01:07:24 10° WSW 01:17:40 66° SSE 01:31:54 10° E visible
24 Sep - 03:11:28 10° W 03:23:42 69° S 03:38:43 10° ESE visible
24 Sep - 05:16:40 10° W 05:29:41 48° SSW 05:43:31 10° SE visible
24 Sep - 07:24:32 10° W 07:34:14 21° SW 07:43:43 10° S daylight
24 Sep - 22:33:17 10° SSW 22:40:33 33° SE 22:50:40 10° E night (unlit)
25 Sep - 00:35:01 10° WSW 00:44:38 63° SSE 00:58:20 10° E visible
25 Sep - 02:38:48 10° W 02:50:25 70° S 03:05:21 10° ESE visible
25 Sep - 04:43:41 10° W 04:56:26 51° SSW 05:10:37 10° SE visible
25 Sep - 06:50:49 10° W 07:01:16 24° SW 07:11:43 10° S daylight
25 Sep - 22:01:29 10° SSW 22:08:01 28° SE 22:16:55 10° E visible
26 Sep - 00:02:43 10° WSW 00:11:41 60° SSE 00:24:45 10° E visible
26 Sep - 02:06:13 10° W 02:17:11 70° S 02:31:54 10° ESE visible
26 Sep - 04:10:49 10° W 04:23:11 53° SSW 04:37:35 10° SE visible
26 Sep - 06:17:19 10° W 06:28:14 27° SW 06:39:30 10° S visible
26 Sep - 21:29:49 10° S 21:35:34 23° SE 21:43:08 10° E visible
26 Sep - 23:30:30 10° SW 23:38:50 56° SSE 23:51:09 10° E visible
27 Sep - 01:33:41 10° W 01:44:02 70° S 01:58:24 10° ESE visible
27 Sep - 03:38:01 10° W 03:49:57 56° SSW 04:04:28 10° SE visible
27 Sep - 05:44:00 10° W 05:55:11 30° SW 06:07:05 10° SSE visible
27 Sep - 20:58:22 10° S 21:03:11 19° SE 21:09:16 10° E visible
27 Sep - 22:58:21 10° SW 23:06:04 51° SSE 23:17:34 10° E visible
28 Sep - 01:01:16 10° W 01:10:56 70° S 01:24:51 10° E visible
28 Sep - 03:05:19 10° W 03:16:43 58° SSW 03:31:13 10° SE visible
28 Sep - 05:10:50 10° W 05:22:05 33° SW 05:34:30 10° SSE visible
28 Sep - 20:27:14 10° SSE 20:30:51 15° SE 20:35:10 10° E visible
28 Sep - 22:26:16 10° SW 22:33:25 46° SSE 22:44:00 10° E visible
29 Sep - 00:28:52 10° WSW 00:37:57 69° S 00:51:17 10° E visible
29 Sep - 02:32:43 10° W 02:43:33 60° SSW 02:57:54 10° ESE visible
29 Sep - 04:37:48 10° W 04:48:59 35° SW 05:01:47 10° SSE visible
29 Sep - 06:48:58 10° WSW 06:53:13 12° SW 06:57:32 10° SW visible
29 Sep - 19:57:02 10° SE 19:58:35 11° SE 20:00:14 10° ESE visible
29 Sep - 21:54:16 10° SW 22:00:50 41° SSE 22:10:28 10° E visible
29 Sep - 23:56:35 10° WSW 00:05:01 67° S 00:17:43 10° E night (unlit)
30 Sep - 02:00:11 10° W 02:10:25 62° SSW 02:24:31 10° ESE visible
30 Sep - 04:04:55 10° W 04:15:51 38° SSW 04:28:56 10° SSE visible
30 Sep - 06:14:07 10° WSW 06:20:19 14° SW 06:26:45 10° SSW visible
30 Sep - 21:22:20 10° SSW 21:28:20 35° SSE 21:36:56 10° E visible
30 Sep - 23:24:19 10° WSW 23:32:11 64° S 23:44:09 10° E visible
01 Oct - 01:27:43 10° W 01:37:21 63° SSW 01:51:04 10° ESE visible
01 Oct - 03:32:07 10° W 03:42:45 40° SSW 03:55:57 10° SSE visible
01 Oct - 05:40:05 10° W 05:47:23 16° SW 05:55:11 10° SSW visible
01 Oct - 20:50:30 10° SSW 20:55:55 30° SE 21:03:28 10° E visible
01 Oct - 22:52:07 10° WSW 22:59:26 61° SSE 23:10:37 10° E visible
02 Oct - 00:55:18 10° W 01:04:21 64° S 01:17:35 10° ESE visible
02 Oct - 02:59:27 10° W 03:09:40 43° SSW 03:22:53 10° SE visible
02 Oct - 05:06:28 10° W 05:14:25 19° SW 05:23:13 10° S visible
02 Oct - 20:18:45 10° SSW 20:23:34 25° SE 20:30:00 10° E visible
02 Oct - 22:19:58 10° WSW 22:26:46 58° SSE 22:37:08 10° E visible
